Year,Month,Day,Hour,Minute,Value (Times are PST for temperature in C)
2017,09,29,13,06,14.30
2017,09,29,13,07,14.30
2017,09,29,13,08,14.30
2017,09,29,13,09,14.30
2017,09,29,13,10,14.30
2017,09,29,13,11,14.40
2017,09,29,13,12,14.40
2017,09,29,13,13,14.40
2017,09,29,13,14,14.40
2017,09,29,13,15,14.40
2017,09,29,13,16,14.40
2017,09,29,13,17,14.40
2017,09,29,13,18,14.40
2017,09,29,13,19,14.40
2017,09,29,13,20,14.40
2017,09,29,13,21,14.40
2017,09,29,13,22,14.30
2017,09,29,13,23,14.30
2017,09,29,13,24,14.30
2017,09,29,13,25,14.30
2017,09,29,13,26,14.30
2017,09,29,13,27,14.30
2017,09,29,13,28,14.30
2017,09,29,13,29,14.30
2017,09,29,13,30,14.40
2017,09,29,13,31,14.30
2017,09,29,13,32,14.30
2017,09,29,13,33,14.30
2017,09,29,13,34,14.30
2017,09,29,13,35,14.30
2017,09,29,13,36,14.30
2017,09,29,13,37,14.30
2017,09,29,13,38,14.30
2017,09,29,13,39,14.30
2017,09,29,13,40,14.30
2017,09,29,13,41,14.40
2017,09,29,13,42,14.40
2017,09,29,13,43,14.40
2017,09,29,13,44,14.50
2017,09,29,13,45,14.50
2017,09,29,13,46,14.60
2017,09,29,13,47,14.60
2017,09,29,13,48,14.60
2017,09,29,13,49,14.60
2017,09,29,13,50,14.60
2017,09,29,13,51,14.60
2017,09,29,13,52,14.60
2017,09,29,13,53,14.60
2017,09,29,13,54,14.60
2017,09,29,13,55,14.60
2017,09,29,13,56,14.60
2017,09,29,13,57,14.60
2017,09,29,13,58,14.60
2017,09,29,13,59,14.60
2017,09,29,14,00,14.60
2017,09,29,14,01,14.60
2017,09,29,14,02,14.60
2017,09,29,14,03,14.60
2017,09,29,14,04,14.70
2017,09,29,14,05,14.70
2017,09,29,14,06,14.80
2017,09,29,14,07,14.80
2017,09,29,14,08,14.80
2017,09,29,14,09,14.80
2017,09,29,14,10,14.80
2017,09,29,14,11,14.80
2017,09,29,14,12,14.80
2017,09,29,14,13,14.80
2017,09,29,14,14,14.70
2017,09,29,14,15,14.80
2017,09,29,14,16,14.80
2017,09,29,14,17,14.80
2017,09,29,14,18,14.80
2017,09,29,14,19,14.80
2017,09,29,14,20,14.70
2017,09,29,14,21,14.70
2017,09,29,14,22,14.70
2017,09,29,14,23,14.70
2017,09,29,14,24,14.70
2017,09,29,14,25,14.70
2017,09,29,14,26,14.80
2017,09,29,14,27,14.80
2017,09,29,14,28,14.80
2017,09,29,14,29,14.90
2017,09,29,14,30,14.90
2017,09,29,14,31,14.80
2017,09,29,14,32,14.80
2017,09,29,14,33,14.70
2017,09,29,14,34,14.60
2017,09,29,14,35,14.50
2017,09,29,14,36,14.50
2017,09,29,14,37,14.40
2017,09,29,14,38,14.40
2017,09,29,14,39,14.40
2017,09,29,14,40,14.40
2017,09,29,14,41,14.40
2017,09,29,14,42,14.40
2017,09,29,14,43,14.40
2017,09,29,14,44,14.40
2017,09,29,14,45,14.50
2017,09,29,14,46,14.50
2017,09,29,14,47,14.60
2017,09,29,14,48,14.60
2017,09,29,14,49,14.60
2017,09,29,14,50,14.60
2017,09,29,14,51,14.70
2017,09,29,14,52,14.70
2017,09,29,14,53,14.70
2017,09,29,14,54,14.70
2017,09,29,14,55,14.70
2017,09,29,14,56,14.70
2017,09,29,14,57,14.70
2017,09,29,14,58,14.80
2017,09,29,14,59,14.80
2017,09,29,15,00,14.80
2017,09,29,15,01,14.80
2017,09,29,15,02,14.70
2017,09,29,15,03,14.70
2017,09,29,15,04,14.70
2017,09,29,15,05,14.70
2017,09,29,15,06,14.70
2017,09,29,15,07,14.80
2017,09,29,15,08,14.80
2017,09,29,15,09,14.80
2017,09,29,15,10,14.80
2017,09,29,15,11,14.80
2017,09,29,15,12,14.80
2017,09,29,15,13,14.80
2017,09,29,15,14,14.80
2017,09,29,15,15,14.80
2017,09,29,15,16,14.80
2017,09,29,15,17,14.80
2017,09,29,15,18,14.70
2017,09,29,15,19,14.70
2017,09,29,15,20,14.70
2017,09,29,15,21,14.70
2017,09,29,15,22,14.80
2017,09,29,15,23,14.80
2017,09,29,15,24,14.80
2017,09,29,15,25,14.80
2017,09,29,15,26,14.80
2017,09,29,15,27,14.90
2017,09,29,15,28,14.90
2017,09,29,15,29,14.90
2017,09,29,15,30,14.90
2017,09,29,15,31,14.90
2017,09,29,15,32,15.00
2017,09,29,15,33,15.00
2017,09,29,15,34,15.10
2017,09,29,15,35,15.10
2017,09,29,15,36,15.10
2017,09,29,15,37,15.10
2017,09,29,15,38,15.10
2017,09,29,15,39,15.20
2017,09,29,15,40,15.20
2017,09,29,15,41,15.20
2017,09,29,15,42,15.10
2017,09,29,15,43,15.10
2017,09,29,15,44,15.00
2017,09,29,15,45,15.00
2017,09,29,15,46,14.90
2017,09,29,15,47,14.90
2017,09,29,15,48,14.80
2017,09,29,15,49,14.80
2017,09,29,15,50,14.90
2017,09,29,15,51,14.90
2017,09,29,15,52,14.90
2017,09,29,15,53,14.90
2017,09,29,15,54,14.90
2017,09,29,15,55,14.90
2017,09,29,15,56,15.00
2017,09,29,15,57,15.00
2017,09,29,15,58,15.00
2017,09,29,15,59,14.90
2017,09,29,16,00,14.90
2017,09,29,16,01,14.90
2017,09,29,16,02,14.90
2017,09,29,16,03,14.90
2017,09,29,16,04,14.90
2017,09,29,16,05,14.90
2017,09,29,16,06,14.90
2017,09,29,16,07,14.90
2017,09,29,16,08,14.90
2017,09,29,16,09,14.90
2017,09,29,16,10,14.90
2017,09,29,16,11,14.90
2017,09,29,16,12,14.90
2017,09,29,16,13,14.90
2017,09,29,16,14,14.90
2017,09,29,16,15,14.90
2017,09,29,16,16,14.90
2017,09,29,16,17,14.90
2017,09,29,16,18,14.90
2017,09,29,16,19,14.90
2017,09,29,16,20,14.90
2017,09,29,16,21,14.90
2017,09,29,16,22,14.90
2017,09,29,16,23,14.90
2017,09,29,16,24,14.90
2017,09,29,16,25,14.90
2017,09,29,16,26,15.00
2017,09,29,16,27,15.10
2017,09,29,16,28,15.10
2017,09,29,16,29,15.10
2017,09,29,16,30,15.00
2017,09,29,16,31,15.00
2017,09,29,16,32,15.00
2017,09,29,16,33,15.00
2017,09,29,16,34,15.00
2017,09,29,16,35,15.00
2017,09,29,16,36,15.10
2017,09,29,16,37,15.00
2017,09,29,16,38,15.00
2017,09,29,16,39,15.00
2017,09,29,16,40,15.00
2017,09,29,16,41,14.90
2017,09,29,16,42,14.90
2017,09,29,16,43,14.90
2017,09,29,16,44,14.90
2017,09,29,16,45,14.90
2017,09,29,16,46,14.80
2017,09,29,16,47,14.80
2017,09,29,16,48,14.80
2017,09,29,16,49,14.90
2017,09,29,16,50,14.90
2017,09,29,16,51,14.80
2017,09,29,16,52,14.80
2017,09,29,16,53,14.90
2017,09,29,16,54,14.90
2017,09,29,16,55,14.90
2017,09,29,16,56,14.90
2017,09,29,16,57,14.90
2017,09,29,16,58,14.80
2017,09,29,16,59,14.80
2017,09,29,17,00,14.80
2017,09,29,17,01,14.90
2017,09,29,17,02,14.90
2017,09,29,17,03,14.90
2017,09,29,17,04,14.90
2017,09,29,17,05,14.90
2017,09,29,17,06,15.00
2017,09,29,17,07,15.00
2017,09,29,17,08,15.00
2017,09,29,17,09,15.10
2017,09,29,17,10,15.10
2017,09,29,17,11,15.10
2017,09,29,17,12,15.00
2017,09,29,17,13,15.00
2017,09,29,17,14,15.00
2017,09,29,17,15,14.90
2017,09,29,17,16,14.90
2017,09,29,17,17,14.90
2017,09,29,17,18,14.90
2017,09,29,17,19,14.90
2017,09,29,17,20,14.90
2017,09,29,17,21,14.90
2017,09,29,17,22,14.90
2017,09,29,17,23,14.80
2017,09,29,17,24,14.80
2017,09,29,17,25,14.80
2017,09,29,17,26,14.80
2017,09,29,17,27,14.70
2017,09,29,17,28,14.70
2017,09,29,17,29,14.70
2017,09,29,17,30,14.80
2017,09,29,17,31,14.80
2017,09,29,17,32,14.80
2017,09,29,17,33,14.80
2017,09,29,17,34,14.80
2017,09,29,17,35,14.80
2017,09,29,17,36,14.80
2017,09,29,17,37,14.70
2017,09,29,17,38,14.80
2017,09,29,17,39,14.80
2017,09,29,17,40,14.80
2017,09,29,17,41,14.80
2017,09,29,17,42,14.80
2017,09,29,17,43,14.80
2017,09,29,17,44,14.80
2017,09,29,17,45,14.80
2017,09,29,17,46,14.80
2017,09,29,17,47,14.70
2017,09,29,17,48,14.70
2017,09,29,17,49,14.70
2017,09,29,17,50,14.70
2017,09,29,17,51,14.70
2017,09,29,17,52,14.70
2017,09,29,17,53,14.70
2017,09,29,17,54,14.70
2017,09,29,17,55,14.80
2017,09,29,17,56,14.70
2017,09,29,17,57,14.80
2017,09,29,17,58,14.70
2017,09,29,17,59,14.70
2017,09,29,18,00,14.70
2017,09,29,18,01,14.70
2017,09,29,18,02,14.70
2017,09,29,18,03,14.70
2017,09,29,18,04,14.60
2017,09,29,18,05,14.60
2017,09,29,18,06,14.60
2017,09,29,18,07,14.60
2017,09,29,18,08,14.60
2017,09,29,18,09,14.60
2017,09,29,18,10,14.60
2017,09,29,18,11,14.60
2017,09,29,18,12,14.50
2017,09,29,18,13,14.40
2017,09,29,18,14,14.40
2017,09,29,18,15,14.30
2017,09,29,18,16,14.30
2017,09,29,18,17,14.30
2017,09,29,18,18,14.30
2017,09,29,18,19,14.30
2017,09,29,18,20,14.30
2017,09,29,18,21,14.30
2017,09,29,18,22,14.30
2017,09,29,18,23,14.30
2017,09,29,18,24,14.30
2017,09,29,18,25,14.30
2017,09,29,18,26,14.30
2017,09,29,18,27,14.30
2017,09,29,18,28,14.30
2017,09,29,18,29,14.30
2017,09,29,18,30,14.30
2017,09,29,18,31,14.30
2017,09,29,18,32,14.30
2017,09,29,18,33,14.30
2017,09,29,18,34,14.30
2017,09,29,18,35,14.30
2017,09,29,18,36,14.30
2017,09,29,18,37,14.20
2017,09,29,18,38,14.20
2017,09,29,18,39,14.20
2017,09,29,18,40,14.20
2017,09,29,18,41,14.20
2017,09,29,18,42,14.10
2017,09,29,18,43,14.10
2017,09,29,18,44,14.10
2017,09,29,18,45,14.00
2017,09,29,18,46,14.00
2017,09,29,18,47,14.00
2017,09,29,18,48,13.90
2017,09,29,18,49,13.90
2017,09,29,18,50,13.90
2017,09,29,18,51,13.80
2017,09,29,18,52,13.80
2017,09,29,18,53,13.80
2017,09,29,18,54,13.70
2017,09,29,18,55,13.70
2017,09,29,18,56,13.60
2017,09,29,18,57,13.50
2017,09,29,18,58,13.50
2017,09,29,18,59,13.50
2017,09,29,19,00,13.50
2017,09,29,19,01,13.50
2017,09,29,19,02,13.50
2017,09,29,19,03,13.50
2017,09,29,19,04,13.50
2017,09,29,19,05,13.50
2017,09,29,19,06,13.50
2017,09,29,19,07,13.50
